Regional Weather Roundup
Issued by NWS Cleveland, OH

Home | Current Version | Previous Version | Graphics & Text | Print | Product List | Glossary On
Versions: 1 2 3 4 5 6 7 8 9 10 11 12 13 14 15 16 17 18 19 20 21 22 23 24 25 26 27 28 29 30 31 32 33 34 35 36 37 38 39 40 41 42 43 44 45 46 47 48 49 50
000
ASUS41 KCLE 301700
RWRCLE
OHIO REGIONAL WEATHER ROUNDUP
NATIONAL WEATHER SERVICE WILMINGTON, OH
100 PM EDT TUE JUN 30 2015

NOTE: "FAIR" INDICATES FEW OR NO CLOUDS BELOW 12,000 FEET WITH NO
SIGNIFICANT WEATHER AND/OR OBSTRUCTIONS TO VISIBILITY.

OHZ001>008-015>018-024>027-034-035-043-044-301800-
   NORTHWEST OHIO

CITY           SKY/WX    TMP DP  RH WIND       PRES   REMARKS
DEFIANCE       CLOUDY    69  64  84 S6        29.82S
FINDLAY        LGT RAIN  69  64  84 SW9       29.81F
TOLEDO EXPRESS CLOUDY    69  61  75 SW7       29.81R
TOLEDO EXEC    CLOUDY    72  61  68 SW10      29.81F
LIMA           LGT RAIN  67  63  87 SW12      29.83S
$$

OHZ009>014-019>023-028>033-038-089-301800-
   NORTHEAST OHIO

CITY           SKY/WX    TMP DP  RH WIND       PRES   REMARKS
CLE-HOPKINS    PTSUNNY   73  60  63 W14       29.83S
CLE-LAKEFRONT  PTSUNNY   70  62  76 NW6       29.81S
CUY CO. ARPT   PTSUNNY   72  64  78 NW9       29.83R
LORAIN-ELYRIA  PTSUNNY   73  61  65 W10G20    29.82S
ASHTABULA      CLOUDY    71  60  68 SW12      29.83S
AKRON-CANTON   PTSUNNY   74  61  63 SW10      29.84F
WOOSTER        NOT AVBL
MANSFIELD      PTSUNNY   72  62  71 SW8       29.83F
YOUNGSTOWN     PTSUNNY   72  62  71 S9        29.84F
$$

OHZ042-051>053-060>062-070>072-077>081-301800-
  SOUTHWEST OHIO

CITY           SKY/WX    TMP DP  RH WIND       PRES   REMARKS
CINC-COVINGTON PTSUNNY   78  66  66 SW13G23   29.86F
CINC-LUNKEN    CLOUDY    77  66  68 W14G23    29.86S
HAMILTON       PTSUNNY   77  69  76 SW9       29.86S
DAYTON         CLOUDY    75  64  69 SW17      29.86S
WRIGHT-PAT AFB NOT AVBL
DAYTON GENERAL PTSUNNY   69  67  93 SW6       29.86S
WILMINGTON     TSTM      73  65  75 NW6       29.86S
$$

OHZ036-037-039>041-045>050-054>059-063>069-073>076-082>088-301800-
  CENTRAL AND SOUTHEAST OHIO

CITY           SKY/WX    TMP DP  RH WIND       PRES   REMARKS
COLUMBUS       PTSUNNY   76  64  66 SW14G20   29.83F
OSU AIRPORT    PTSUNNY   75  64  68 SW12      29.83F
BOLTON FIELD   PTSUNNY   73  66  78 SW15      29.84F
RICKENBACK AFB NOT AVBL
NEWARK         MOSUNNY   77  65  66 SW8G22    29.84F
MARION         CLOUDY    71  63  75 SW12      29.82F
LANCASTER      MOSUNNY   76  66  71 W14       29.86F
ZANESVILLE     CLOUDY    70  62  76 SW9G22    29.85F
NEW PHILLY     PTSUNNY   74  66  76 SW7       29.85F
$$



USA.gov is the U.S. government's official web portal to all federal, state and local government web resources and services.